LIFTER3 EDDE-EDDC

Flight info

Callsign LIFTER3
Flight time 0h 23m
Altitude 19000
Route LASTO DCT DRN
Aircraft A400/H-SDE2E3FGHIJ4J5M1RWXY/LB1D1

Departure

Time 2026-04-27 10:28
Airport Erfurt-Weimar Airport (EDDE)

Arrival

Time 2026-04-27 10:52
Airport Dresden Airport (EDDC)
Time Latitude Longitude Altitude Speed Heading
2026-04-27 10:16 50.97649 10.95864 1025 ft 0 kts 97°
2026-04-27 10:26 50.97648 10.95877 1023 ft 5 kts 96°
2026-04-27 10:26 50.97691 10.95936 1021 ft 13 kts 11°
2026-04-27 10:26 50.97763 10.95859 1022 ft 15 kts 280°
2026-04-27 10:27 50.97777 10.95675 1023 ft 18 kts 277°
2026-04-27 10:27 50.97794 10.95463 1024 ft 20 kts 276°
2026-04-27 10:27 50.97862 10.95357 1023 ft 15 kts
2026-04-27 10:27 50.97966 10.95374 1025 ft 15 kts 14°
2026-04-27 10:28 50.98004 10.95537 1025 ft 36 kts 94°
2026-04-27 10:28 50.97919 10.96609 1059 ft 151 kts 95°
2026-04-27 10:28 50.98014 10.98360 1818 ft 172 kts 58°
2026-04-27 10:28 50.98960 10.99664 2720 ft 195 kts 30°
2026-04-27 10:29 51.00243 11.00765 3624 ft 221 kts 31°
2026-04-27 10:29 51.01591 11.02046 4994 ft 231 kts 32°
2026-04-27 10:29 51.02970 11.03453 6333 ft 241 kts 31°
2026-04-27 10:29 51.04416 11.04845 7760 ft 242 kts 29°
2026-04-27 10:30 51.05868 11.06203 9245 ft 247 kts 28°
2026-04-27 10:30 51.07394 11.07594 10545 ft 258 kts 27°
2026-04-27 10:30 51.09071 11.08920 11413 ft 283 kts 22°
2026-04-27 10:30 51.10850 11.10628 11899 ft 315 kts 36°
2026-04-27 10:31 51.12237 11.13466 12546 ft 338 kts 62°
2026-04-27 10:31 51.12812 11.17163 13343 ft 352 kts 81°
2026-04-27 10:31 51.12923 11.21101 14170 ft 361 kts 89°
2026-04-27 10:31 51.12786 11.25125 14922 ft 367 kts 93°
2026-04-27 10:32 51.12544 11.29192 15730 ft 371 kts 94°
2026-04-27 10:32 51.12282 11.33301 16557 ft 375 kts 94°
2026-04-27 10:32 51.12038 11.37470 17398 ft 379 kts 94°
2026-04-27 10:32 51.11826 11.41604 18220 ft 383 kts 93°
2026-04-27 10:33 51.11636 11.45851 18884 ft 387 kts 92°
2026-04-27 10:33 51.11461 11.50144 19199 ft 391 kts 91°
2026-04-27 10:33 51.11294 11.54479 19270 ft 393 kts 91°
2026-04-27 10:33 51.11130 11.58824 19272 ft 393 kts 91°
2026-04-27 10:34 51.10965 11.63156 19268 ft 393 kts 91°
2026-04-27 10:34 51.10797 11.67493 19267 ft 393 kts 91°
2026-04-27 10:34 51.10627 11.71837 19270 ft 393 kts 92°
2026-04-27 10:34 51.10453 11.76168 19268 ft 393 kts 92°
2026-04-27 10:35 51.10277 11.80510 19269 ft 393 kts 92°
2026-04-27 10:35 51.10098 11.84854 19271 ft 393 kts 92°
2026-04-27 10:35 51.09918 11.89189 19271 ft 393 kts 92°
2026-04-27 10:35 51.09739 11.93476 19275 ft 393 kts 92°
2026-04-27 10:36 51.09556 11.97812 19248 ft 394 kts 92°
2026-04-27 10:36 51.09371 12.02161 19008 ft 393 kts 92°
2026-04-27 10:36 51.09184 12.06520 18728 ft 396 kts 92°
2026-04-27 10:36 51.08995 12.10886 18430 ft 395 kts 92°
2026-04-27 10:37 51.08805 12.15238 18103 ft 393 kts 92°
2026-04-27 10:37 51.08613 12.19576 17780 ft 392 kts 92°
2026-04-27 10:37 51.08421 12.23893 17468 ft 390 kts 92°
2026-04-27 10:37 51.08229 12.28187 17144 ft 388 kts 92°
2026-04-27 10:38 51.08035 12.32461 16830 ft 386 kts 92°
2026-04-27 10:38 51.07842 12.36708 16524 ft 384 kts 92°
2026-04-27 10:38 51.07648 12.40948 16225 ft 383 kts 92°
2026-04-27 10:38 51.07453 12.45157 15920 ft 381 kts 92°
2026-04-27 10:39 51.07258 12.49346 15624 ft 379 kts 92°
2026-04-27 10:39 51.07064 12.53466 15335 ft 377 kts 92°
2026-04-27 10:39 51.06868 12.57610 15033 ft 376 kts 92°
2026-04-27 10:39 51.06670 12.61754 14742 ft 374 kts 92°
2026-04-27 10:40 51.06472 12.65875 14335 ft 372 kts 92°
2026-04-27 10:40 51.06274 12.69966 13712 ft 370 kts 92°
2026-04-27 10:40 51.06076 12.74020 12928 ft 365 kts 92°
2026-04-27 10:40 51.05882 12.77965 12161 ft 360 kts 92°
2026-04-27 10:41 51.05686 12.81903 11399 ft 355 kts 92°
2026-04-27 10:41 51.05492 12.85786 10666 ft 350 kts 92°
2026-04-27 10:41 51.05300 12.89619 9935 ft 345 kts 92°
2026-04-27 10:41 51.05110 12.93393 9144 ft 340 kts 92°
2026-04-27 10:42 51.04921 12.97101 8356 ft 333 kts 93°
2026-04-27 10:42 51.04736 13.00725 7607 ft 325 kts 93°
2026-04-27 10:42 51.04554 13.04276 6873 ft 319 kts 93°
2026-04-27 10:42 51.04374 13.07762 6091 ft 313 kts 94°
2026-04-27 10:43 51.04197 13.11180 5322 ft 308 kts 94°
2026-04-27 10:43 51.04023 13.14538 4545 ft 301 kts 95°
2026-04-27 10:43 51.03851 13.17817 3964 ft 292 kts 95°
2026-04-27 10:43 51.03681 13.21033 3887 ft 294 kts 95°
2026-04-27 10:44 51.03508 13.24277 4017 ft 303 kts 95°
2026-04-27 10:44 51.03328 13.27632 4138 ft 306 kts 95°
2026-04-27 10:44 51.03152 13.30907 4054 ft 285 kts 95°
2026-04-27 10:44 51.02987 13.33955 3802 ft 267 kts 95°
2026-04-27 10:45 51.02828 13.36824 3540 ft 254 kts 95°
2026-04-27 10:45 51.02671 13.39574 3271 ft 246 kts 95°
2026-04-27 10:45 51.02518 13.42240 3040 ft 238 kts 95°
2026-04-27 10:45 51.02370 13.44771 2994 ft 218 kts 95°
2026-04-27 10:46 51.02233 13.47018 2992 ft 195 kts 95°
2026-04-27 10:46 51.02106 13.49102 2990 ft 183 kts 95°
2026-04-27 10:46 51.01986 13.51054 2989 ft 178 kts 95°
2026-04-27 10:46 51.01869 13.52991 2994 ft 176 kts 95°
2026-04-27 10:47 51.01751 13.54918 2998 ft 176 kts 95°
2026-04-27 10:47 51.01631 13.56846 2995 ft 176 kts 95°
2026-04-27 10:47 51.01518 13.58802 2993 ft 176 kts 90°
2026-04-27 10:47 51.01857 13.60552 2980 ft 163 kts 60°
2026-04-27 10:48 51.02570 13.61919 2998 ft 162 kts 42°
2026-04-27 10:48 51.03417 13.63065 2995 ft 153 kts 39°
2026-04-27 10:48 51.04177 13.64087 2925 ft 136 kts 40°
2026-04-27 10:48 51.04874 13.65034 2741 ft 128 kts 40°
2026-04-27 10:49 51.05529 13.65932 2551 ft 122 kts 40°
2026-04-27 10:49 51.06171 13.66815 2391 ft 121 kts 40°
2026-04-27 10:49 51.06822 13.67703 2245 ft 124 kts 39°
2026-04-27 10:49 51.07484 13.68557 2102 ft 123 kts 38°
2026-04-27 10:50 51.08142 13.69426 1950 ft 122 kts 39°
2026-04-27 10:50 51.08782 13.70308 1765 ft 123 kts 42°
2026-04-27 10:50 51.09408 13.71212 1542 ft 122 kts 41°
2026-04-27 10:50 51.10043 13.72110 1348 ft 122 kts 40°
2026-04-27 10:51 51.10472 13.72709 1260 ft 122 kts 40°
2026-04-27 10:51 51.11112 13.73598 1145 ft 123 kts 41°
2026-04-27 10:51 51.11744 13.74479 960 ft 119 kts 40°
2026-04-27 10:51 51.12366 13.75333 795 ft 117 kts 40°
2026-04-27 10:52 51.12945 13.76154 725 ft 93 kts 40°
2026-04-27 10:52 51.13266 13.76585 723 ft 34 kts 41°
2026-04-27 10:52 51.13355 13.76749 721 ft 14 kts 95°
2026-04-27 10:52 51.13294 13.76882 722 ft 16 kts 131°
2026-04-27 10:53 51.13222 13.77015 722 ft 15 kts 130°
2026-04-27 10:53 51.13085 13.76993 720 ft 8 kts 234°
2026-04-27 10:53 51.13083 13.76926 720 ft 6 kts 266°
2026-04-27 10:54 51.13082 13.76913 720 ft 0 kts 265°